Location: Hells Corners
(41.1417°N, 80.5495°W)
Time: 08:14:52
(UTC+00:00)

Daily predictions for brighter satellites

Satellite Brightness Start Highest point End
(mag) Time Altitude Azimuth Time Altitude Azimuth Time Altitude Azimuth
STARLINK 1044 4.0 12:02:40 10° SW 12:06:10 56° SE 12:09:42 10° ENE
Cosmos 2366 rocket 4.2 12:00:30 10° NNW 12:06:40 54° W 12:12:48 10° SSW
USA 238 DEB 4.5 12:02:00 10° NW 12:08:31 37° WSW 12:15:12 10° S
USA 238 4.5 12:02:06 10° NW 12:08:38 37° WSW 12:15:19 10° S
Abrixas rocket 2.6 12:07:24 10° NW 12:10:22 49° NNE 12:13:18 10° E
AQUARIUS 4.3 12:09:42 10° N 12:14:06 54° WNW 12:18:27 10° SSW
NOAA 12 4.2 12:08:47 10° NNE 12:14:06 89° WNW 12:19:24 10° SSW
STARLINK-34 4.4 12:11:17 10° W 12:14:56 32° NNW 12:18:36 10° NE
IRS-1C Rocket 4.1 12:11:22 10° N 12:16:35 63° WNW 12:21:46 10° SSW
SMAP 3.1 22:45:16 10° SSE 22:49:55 84° ENE 22:54:35 10° NNW
Cosmos 1300 3.1 22:48:17 10° N 22:51:54 39° ENE 22:55:29 10° SSE
Cosmos 1908 4.2 22:50:00 10° NNW 22:53:47 53° W 22:57:31 10° S
Cosmos 1812 Rocket 4.1 22:51:10 10° N 22:55:20 37° ENE 22:59:28 10° SE
Cosmos 1242 Rocket 2.4 22:56:28 10° S 22:59:57 84° E 23:03:30 10° N
YAOGAN 1 3.7 22:58:31 10° ESE 23:01:49 22° ENE 23:05:08 10° NNE
Cosmos 1340 Rocket 3.2 22:59:34 10° N 23:03:18 39° ENE 23:07:02 10° SSE
Cosmos 1271 Rocket 3.1 23:01:04 10° SSW 23:04:45 64° W 23:08:30 10° N
Cosmos 494 Rocket 4.3 23:00:17 10° N 23:05:07 40° ENE 23:09:56 10° SE
Cosmos 1626 2.0 23:01:33 10° S 23:05:14 77° E 23:08:57 10° N
SL-14 R/B 3.3 23:02:45 10° S 23:06:46 90° NE 23:10:46 10° N
YAOGAN 6 2.9 23:03:36 10° SSE 23:07:08 45° ENE 23:10:40 10° N
Cosmos 1455 4.0 23:05:54 10° NE 23:07:37 13° ENE 23:09:20 10° E
Cosmos 2237 Rocket 2.7 23:05:23 10° N 23:10:32 35° ENE 23:15:38 10° ESE
Cosmos-2242 4.2 23:07:22 10° NNE 23:10:39 21° ENE 23:13:54 10° ESE
Cosmos 2333 Rocket 2.3 23:06:05 10° NNW 23:11:49 83° WSW 23:17:29 10° SSE
BREEZE-M DEB (TANK) 2.0 23:13:30 10° SW 23:16:06 64° SE 23:17:43 17° ENE
Cosmos 1461 3.3 23:12:28 10° NW 23:16:50 72° WSW 23:21:20 10° SSE
ATLAS CENTAUR R/B 4.4 23:13:02 10° W 23:18:09 43° NNW 23:31:20 10° NE
Meteor 1-24 Rocket 4.4 23:13:25 10° SSW 23:18:35 55° WNW 23:23:52 10° N
Cosmos 1602 Rocket 3.6 23:15:33 10° S 23:19:58 85° W 23:24:21 10° N
Meteor 1-21 Rocket 4.5 23:15:47 10° SSE 23:21:03 45° E 23:26:25 10° NNE
USA 267 4.5 23:16:56 10° NE 23:22:31 31° NNW 23:28:06 10° W
Cosmos 2154 Rocket 4.1 23:16:21 10° S 23:22:38 88° W 23:28:56 10° N
CSL-04 Rocket 4.1 23:18:16 10° SE 23:23:19 39° ENE 23:28:25 10° N
Cosmos 1939 Rocket 3.8 23:21:02 10° SE 23:24:13 25° ENE 23:27:27 10° NNE
USA 32 4.0 23:24:14 10° S 23:29:22 61° E 23:34:31 10° NNE
ATLAS 5 CENTAUR R/B 4.1 23:27:58 10° WNW 23:30:17 14° NNW 23:32:44 10° N
SL-16 R/B 3.4 23:26:55 10° N 23:31:11 21° NE 23:33:10 18° E
Cosmos 1953 Rocket 4.3 23:27:48 10° SSE 23:31:45 32° E 23:35:44 10° NNE
COSMO-SKYMED 1 2.5 23:27:47 10° NNE 23:32:08 83° E 23:36:29 10° S
DELTA 2 R/B (1) 3.8 23:27:36 10° WSW 23:33:06 62° SSE 23:37:08 19° E
Cosmos 2219 3.1 23:28:22 10° SSW 23:33:57 76° ESE 23:39:36 10° NNE
Cosmos 1758 Rocket 3.5 23:32:38 10° S 23:36:53 61° E 23:41:09 10° NNE
ISS -2.8 23:34:33 10° SSW 23:37:35 31° SE 23:38:38 25° E
FengYun 1-2 T 4.3 23:31:59 10° SSE 23:37:36 90° WSW 23:43:18 10° NNW
Cosmos 2082 4.5 23:32:55 10° SSE 23:37:42 30° ESE 23:40:30 20° ENE
Okean-O 3.2 23:34:57 10° S 23:39:18 60° W 23:43:42 10° NNW
Cosmos 1703 3.9 23:44:30 10° SSE 23:48:03 32° E 23:48:38 31° ENE
Cosmos 2297 Rocket 2.1 23:43:20 10° SSW 23:48:56 70° ESE 23:54:00 13° NNE
Cosmos 2366 rocket 4.1 23:44:55 10° SSE 23:50:50 50° E 23:56:50 10° NNE
CZ-4 R/B 1.4 23:47:54 10° S 23:51:54 83° WSW 23:56:02 10° NNW
Cosmos 1980 3.6 23:47:04 10° NNW 23:52:48 81° ENE 23:58:29 10° SSE
